Calcutta, India

9:11 PM IST on January 22, 2017 (GMT +0530)
Netaji Subhash Chandra Bose International

Weather History for VECC - March, 2014

Change the Weather History Date:

Wednesday, March 19, 2014

  Actual Average Record
Temperature  
Mean Temperature 86 °F -  
Max Temperature 98 °F 90 °F 98 °F (2002)
Min Temperature 74 °F 72 °F 68 °F (2001)
Cooling Degree Days 21    
Growing Degree Days 36 (Base 50)    
Moisture  
Dew Point 68 °F    
Average Humidity 61    
Maximum Humidity 100    
Minimum Humidity 24    
Precipitation  
Precipitation 0.00 in - - ()
Sea Level Pressure  
Sea Level Pressure 29.81 in    
Wind  
Wind Speed 4 mph ()    
Max Wind Speed 12 mph    
Max Gust Speed -    
Visibility 1.5 miles    
Events Fog    
Averages and records for this station are not official NWS values.
T = Trace of Precipitation, MM = Missing Value Source: Averaged Metar Reports

Daily Weather History Graph

Daily Weather History Graph

Search for Another Location

Airport or City:

Trip Planner

Search our weather history database for the weather conditions in past years. The results will help you decide how hot, cold, wet, or windy it might be!

Date:

Astronomy

Mar. 19, 2014 Rise Set
Actual Time 5:41 AM IST 5:46 PM IST
Civil Twilight 5:19 AM IST 6:09 PM IST
Nautical Twilight 4:53 AM IST 6:35 PM IST
Astronomical Twilight 4:27 AM IST 7:01 PM IST
Moon 8:12 PM IST (3/19) 7:07 AM IST (3/19)
Length of Visible Light 12h 49m
Length of Day
12h 05m
Waning Gibbous, 93% of the Moon is Illuminated
Mar 19
Waning Gibbous
Mar 24
Last Quarter
Mar 31
New
Apr 7
First Quarter
Apr 15
Full

Hourly Weather History & Observations

Time (IST) Temp. Heat Index Dew Point Humidity Pressure Visibility Wind Dir Wind Speed Gust Speed Precip Events Conditions
12:20 AM 80.6 °F 84.6 °F 71.6 °F 74% 29.80 in 1.6 mi South 5.8 mph - N/A   Haze
12:50 AM 78.8 °F - 71.6 °F 78% 29.80 in 1.6 mi SSE 3.5 mph - N/A   Haze
1:20 AM 78.8 °F - 71.6 °F 78% 29.80 in 1.5 mi SSE 4.6 mph - N/A   Haze
1:50 AM 77.0 °F - 71.6 °F 83% 29.80 in 1.5 mi SSE 4.6 mph - N/A   Haze
2:20 AM 77.0 °F - 71.6 °F 83% 29.77 in 1.5 mi SSE 3.5 mph - N/A   Haze
2:30 AM 73 °F - 74 °F 100% 29.83 in 1 mi Calm Calm - -   Haze
2:50 AM 77.0 °F - 71.6 °F 83% 29.80 in 1.5 mi SSE 3.5 mph - N/A   Haze
3:20 AM 77.0 °F - 71.6 °F 83% 29.77 in 1.5 mi Calm Calm - N/A   Haze
3:50 AM 75.2 °F - 71.6 °F 89% 29.80 in 1.5 mi Calm Calm - N/A   Haze
4:20 AM 75.2 °F - 71.6 °F 89% 29.80 in 1.4 mi Calm Calm - N/A   Haze
4:50 AM 75.2 °F - 71.6 °F 89% 29.80 in 1.4 mi Calm Calm - N/A   Haze
5:20 AM 73.4 °F - 71.6 °F 94% 29.83 in 1.1 mi Calm Calm - N/A   Partly Cloudy
5:30 AM 76 °F - 74 °F 90% 29.81 in 1 mi Calm Calm - -   Haze
5:50 AM 73.4 °F - 71.6 °F 94% 29.83 in 0.7 mi Calm Calm - N/A Fog Shallow Fog
6:20 AM 75.2 °F - 73.4 °F 94% 29.83 in 0.5 mi Calm Calm - N/A Fog Fog
6:50 AM 75.2 °F - 73.4 °F 94% 29.83 in 0.5 mi Calm Calm - N/A Fog Fog
7:20 AM 77.0 °F - 75.2 °F 94% 29.83 in 0.7 mi SSE 4.6 mph - N/A Fog Shallow Fog
8:20 AM 80.6 °F 85.4 °F 73.4 °F 79% 29.86 in 1.1 mi South 9.2 mph - N/A   Scattered Clouds
8:30 AM 85 °F - 76 °F 68% 29.90 in 1 mi South 2.3 mph - -   Haze
8:50 AM 82.4 °F 89.5 °F 75.2 °F 79% 29.89 in 1.2 mi SSW 11.5 mph - N/A   Scattered Clouds
9:20 AM 84.2 °F 90.9 °F 73.4 °F 70% 29.89 in 1.4 mi WSW 6.9 mph - N/A   Smoke
9:50 AM 84.2 °F 89.6 °F 71.6 °F 66% 29.89 in 1.4 mi West 8.1 mph - N/A   Smoke
10:20 AM 86.0 °F 90.4 °F 69.8 °F 58% 29.89 in 1.4 mi West 6.9 mph - N/A   Smoke
10:50 AM 87.8 °F 91.4 °F 68.0 °F 52% 29.89 in 1.5 mi West 9.2 mph - N/A   Smoke
11:20 AM 87.8 °F 91.4 °F 68.0 °F 52% 29.89 in 1.6 mi WNW 9.2 mph - N/A   Smoke
11:30 AM 90 °F - 69 °F 41% 29.89 in 1 mi West 4.6 mph - -   Haze
11:50 AM 89.6 °F 87.7 °F 55.4 °F 31% 29.86 in 1.6 mi WNW 9.2 mph - N/A   Smoke
12:20 PM 91.4 °F - 51.8 °F 26% 29.86 in 1.7 mi NNW 6.9 mph - N/A   Haze
1:20 PM 93.2 °F 94.1 °F 62.6 °F 36% 29.80 in 2.2 mi NNE 3.5 mph - N/A   Haze
1:50 PM 95.0 °F 96.0 °F 62.6 °F 34% 29.80 in 2.5 mi North 4.6 mph - N/A   Haze
2:20 PM 95.0 °F 96.0 °F 62.6 °F 34% 29.77 in 2.5 mi East 4.6 mph - N/A   Haze
2:30 PM 96 °F - 63 °F 24% 29.78 in 1 mi NW 3.5 mph - -   Haze
2:50 PM 95.0 °F 96.0 °F 62.6 °F 34% 29.77 in 2.5 mi East 4.6 mph - N/A   Haze
3:20 PM 95.0 °F 95.2 °F 60.8 °F 32% 29.74 in 2.5 mi South 3.5 mph - N/A   Haze
3:50 PM 95.0 °F 94.4 °F 59.0 °F 30% 29.74 in 2.5 mi West 3.5 mph - N/A   Haze
4:20 PM 95.0 °F 94.4 °F 59.0 °F 30% 29.74 in 2.5 mi WSW 4.6 mph - N/A   Haze
4:50 PM 93.2 °F 94.1 °F 62.6 °F 36% 29.74 in 2.5 mi SSE 5.8 mph - N/A   Haze
5:20 PM 91.4 °F 93.2 °F 64.4 °F 41% 29.74 in 2.2 mi SSE 5.8 mph - N/A   Haze
5:30 PM 93 °F - 66 °F 31% 29.75 in 1 mi Calm Calm - -   Haze
5:50 PM 89.6 °F 91.1 °F 64.4 °F 43% 29.74 in - South 6.9 mph - N/A   Haze
6:20 PM 89.6 °F 91.1 °F 64.4 °F 43% 29.74 in 1.7 mi SSW 6.9 mph - N/A   Haze
6:50 PM 87.8 °F 89.4 °F 64.4 °F 46% 29.74 in 1.7 mi SSW 6.9 mph - N/A   Haze
7:20 PM 86.0 °F 88.2 °F 66.2 °F 51% 29.74 in 1.7 mi SSW 4.6 mph - N/A   Haze
7:50 PM 84.2 °F 85.6 °F 64.4 °F 51% 29.77 in 1.7 mi SSW 6.9 mph - N/A   Haze
8:20 PM 84.2 °F 85.6 °F 64.4 °F 51% 29.77 in 1.7 mi South 8.1 mph - N/A   Haze
8:30 PM 85 °F - 70 °F 52% 29.80 in 1 mi Calm Calm - -   Haze
8:50 PM 84.2 °F 87.3 °F 68.0 °F 58% 29.77 in 1.7 mi South 6.9 mph - N/A   Haze
9:20 PM 84.2 °F 87.3 °F 68.0 °F 58% 29.80 in 1.7 mi South 5.8 mph - N/A   Haze
9:50 PM 84.2 °F 87.3 °F 68.0 °F 58% 29.80 in 1.7 mi South 5.8 mph - N/A   Haze
10:20 PM 82.4 °F 85.4 °F 68.0 °F 62% 29.80 in 1.7 mi SW 6.9 mph - N/A   Haze
10:50 PM 82.4 °F 85.4 °F 68.0 °F 62% 29.80 in 1.7 mi SSW 6.9 mph - N/A   Haze
11:20 PM 82.4 °F 85.4 °F 68.0 °F 62% 29.80 in 1.7 mi SSW 6.9 mph - N/A   Haze
11:30 PM 82 °F - 67 °F 53% 29.81 in 1 mi Calm Calm - -   Haze
11:50 PM 82.4 °F 85.4 °F 68.0 °F 62% 29.80 in 1.7 mi SSW 5.8 mph - N/A   Haze